[[{"header":{"parameterUnit":"m.s-1","parameterCategory":1,"la1":30.2991,"la2":30.254,"lo1":-89.0895,"lo2":-89.0444,"dy":0.0017,"dx":0.0017,"nx":28,"ny":28,"refTime":"2023-09-26T21:00:00:Z","depth":0,"parameterNumber":2,"parameterNumberName":"U-component_of_WINDS"},"data":[0,0,0,0,0,0,0,0,0,0,0,0,0,0,0,0,0,0,0,0,0,0,0,0,0,0,0,0,0,0,0,0,0,0,0,0,0,0,0,0,0,0,0,0,0,0,0,0,0,0,0,0,0,0,0,0,0,0,-5.0477,-5.0478,0,-5.0565,-5.0565,-5.0566,-5.0475,-5.0472,-5.0468,-5.0465,-5.0552,-5.0557,-5.0563,0,0,0,0,0,0,0,0,0,0,0,0,0,-5.0227,-5.0232,-5.0477,-5.0478,-5.0479,-5.0564,-5.0566,-5.0567,-5.0476,-5.0471,-5.0467,-5.0463,-5.055,-5.0557,-5.0563,0,0,0,0,0,0,0,0,0,0,0,0,0,-5.0327,-5.0234,-5.0477,-5.0444,-5.0442,-5.0564,-5.0566,-5.0567,-5.0477,-5.0471,-5.0466,-5.0461,-5.0548,-5.0556,-5.0564,-5.0722,0,0,-5.059,-5.0594,0,0,0,0,0,0,0,0,-5.0322,-5.0336,-5.0448,-5.0446,-5.0444,-5.0503,-5.0509,-5.0619,-5.0478,-5.0463,-5.0465,-5.0458,-5.054,-5.0549,-5.0577,-5.0726,-5.073,-5.0591,-5.0596,-5.0599,-5.0602,0,0,0,0,0,0,0,-5.0315,-5.0332,-5.0511,-5.0449,-5.0447,-5.0424,-5.0432,-5.053,-5.053,-5.0464,-5.0458,-5.047,-5.0538,-5.0569,-5.0578,-5.0731,-5.0591,-5.0598,-5.0603,-5.0606,-5.1013,-5.1019,0,0,0,0,0,0,-5.0312,-5.0327,-5.0509,-5.0514,-5.0369,-5.0433,-5.0442,-5.049,-5.0529,-5.053,-5.0474,-5.0465,-5.0557,-5.0568,-5.0581,-5.0767,-5.0599,-5.0607,-5.0612,-5.1008,-5.1015,-5.1021,0,0,0,0,0,0,-5.0307,-5.0329,-5.0505,-5.0419,-5.0439,-5.0442,-5.0497,-5.0494,-5.0525,-5.0536,-5.0536,-5.0506,-5.0553,-5.0569,-5.0688,-5.0769,-5.0611,-5.0619,-5.1001,-5.101,-5.1018,-5.1142,0,0,0,0,0,0,-5.03,-5.0328,-5.0389,-5.0421,-5.0444,-5.0612,-5.0502,-5.05,-5.054,-5.0529,-5.0566,-5.0567,-5.055,-5.0675,-5.0696,-5.0778,-5.0625,-5.0994,-5.1005,-5.1015,-5.1131,-5.1154,-5.1174,0,0,0,0,0,-5.0292,-5.042,-5.0392,-5.0415,-5.0521,-5.0617,-5.063,-5.0609,-5.0547,-5.0608,-5.0615,-5.0566,-5.0757,-5.0688,-5.0711,-5.0796,-5.0988,-5.1002,-5.1014,-5.1121,-5.1149,-5.1173,0,0,0,0,0,0,-5.0396,-5.0424,-5.0393,-5.0536,-5.0575,-5.0601,-5.0677,-5.064,-5.0697,-5.0684,-5.0655,-5.0664,-5.079,-5.0805,-5.0728,-5.095,-5.0862,-5.088,-5.0936,-5.0963,-5.0984,-5.0977,-5.0632,0,0,0,0,0,-5.0437,-5.0513,-5.0532,-5.0656,-5.0678,-5.0674,-5.0715,-5.0696,-5.0735,-5.075,-5.0766,-5.0805,-5.0873,-5.0919,-5.0983,-5.1133,-5.1138,-5.1202,-5.1224,-5.1241,-5.1257,-5.1336,-5.1364,-5.1063,-5.1063,-5.1063,0,0,-5.0519,-5.0544,-5.0594,-5.0678,-5.0706,-5.0785,-5.0689,-5.0776,-5.0834,-5.0763,-5.0876,-5.0889,-5.093,-5.1065,-5.1125,-5.1081,-5.1342,-5.1258,-5.1272,-5.1278,-5.1352,-5.1381,-5.1406,-5.1072,-5.1071,-5.1069,0,0,-5.0711,-5.0738,-5.0843,-5.0873,-5.0917,-5.0914,-5.0939,-5.0971,-5.0977,-5.109,-5.1038,-5.1106,-5.1225,-5.1256,-5.1288,-5.149,-5.1447,-5.1512,-5.1624,-5.1702,-5.1725,-5.1746,-5.1817,-5.1843,-5.1528,-5.1528,-5.1528,0,-5.0808,-5.0926,-5.0902,-5.0994,-5.1032,-5.0972,-5.1078,-5.1108,-5.117,-5.1197,-5.1147,-5.1295,-5.1318,-5.1459,-5.1508,-5.1536,-5.1563,-5.1507,-5.1724,-5.1745,-5.1764,-5.1831,-5.1858,-5.1536,-5.1535,-5.1534,-5.1533,0,-5.1043,-5.1125,-5.1205,-5.1267,-5.1314,-5.1413,-5.1403,-5.1453,-5.1429,-5.1431,-5.1547,-5.1573,-5.164,-5.1672,-5.165,-5.181,-5.1781,-5.1729,-5.1639,-5.1801,-5.1863,-5.1889,-5.1546,-5.1544,-5.1541,-5.154,0,0,-5.1303,-5.135,-5.138,-5.1407,-5.145,-5.1513,-5.1608,-5.1675,-5.1718,-5.1762,-5.184,-5.1942,-5.1894,-5.193,-5.191,-5.1978,-5.2136,-5.1917,-5.1917,-5.1956,-5.2312,-5.2351,-5.2381,-5.2108,-5.2112,-5.2116,-5.2308,0,-5.1494,-5.166,-5.1641,-5.1799,-5.1874,-5.1818,-5.1901,-5.1936,-5.194,-5.2003,-5.2007,-5.2079,-5.201,-5.2031,-5.2096,-5.2103,-5.2207,-5.2089,-5.2179,-5.2182,-5.217,-5.2414,-5.2456,-5.2636,-5.2333,-5.2337,-5.234,0,-5.174,-5.1794,-5.196,-5.1991,-5.2021,-5.2096,-5.2155,-5.2217,-5.2255,-5.2253,-5.2293,-5.2261,-5.2355,-5.2265,-5.2394,-5.2314,-5.2349,-5.2358,-5.2365,-5.2371,-5.227,-5.2427,-5.2693,-5.272,-5.2379,-5.2376,-5.2373,0,-5.1912,-5.2026,-5.2139,-5.2164,-5.2203,-5.2257,-5.2276,-5.2308,-5.2349,-5.2401,-5.2427,-5.2489,-5.2522,-5.257,-5.2555,-5.2491,-5.2687,-5.2596,-5.2687,-5.2687,-5.273,-5.2727,-5.3005,-5.2755,-5.2755,-5.2754,-5.2753,0,-5.2127,-5.223,-5.2217,-5.2287,-5.24,-5.2377,-5.2489,-5.2501,-5.2531,-5.2601,-5.2556,-5.2622,-5.2599,-5.2664,-5.2654,-5.2761,-5.2777,-5.2777,-5.2773,-5.2781,-5.2781,-5.2803,-5.279,-5.2761,-5.276,-5.2758,-5.2757,0,-5.2338,-5.2333,-5.2453,-5.248,-5.2489,-5.2572,-5.2595,-5.266,-5.266,-5.2749,-5.2769,-5.2769,-5.2844,-5.2834,-5.2917,-5.2909,-5.3043,-5.3024,-5.303,-5.3025,-5.3117,-5.3108,-5.3417,-5.3456,-5.3182,-5.3185,-5.3187,0,-5.2475,-5.2553,-5.2589,-5.2633,-5.2656,-5.2728,-5.2769,-5.2749,-5.2794,-5.2843,-5.2902,-5.2972,-5.3027,-5.3148,-5.3155,-5.3218,-5.3199,-5.3303,-5.3208,-5.3213,-5.3199,-5.3195,-5.3202,-5.3322,-5.3325,-5.3327,-5.3329,0,-5.2719,-5.2713,-5.2775,-5.2837,-5.2888,-5.2936,-5.2978,-5.3017,-5.3,-5.3053,-5.3128,-5.3171,-5.3256,-5.3325,-5.3384,-5.3402,-5.3363,-5.3359,-5.3384,-5.3392,-5.3392,-5.3392,-5.308,-5.3352,-5.335,-5.3348,-5.3347,-5.3346,-5.2896,-5.2963,-5.2999,-5.3069,-5.3099,-5.314,-5.3202,-5.3211,-5.3274,-5.3341,-5.3325,-5.341,-5.3445,-5.352,-5.3544,-5.361,-5.3571,-5.3607,-5.3616,-5.3624,-5.3635,-5.3383,-5.362,-5.362,-5.3619,-5.3619,-5.3618,0,-5.3137,-5.3157,-5.3223,-5.3284,-5.3339,-5.3299,-5.3343,-5.3392,-5.3468,-5.3504,-5.3559,-5.3645,-5.3713,-5.3725,-5.3789,-5.3839,-5.3823,-5.3857,-5.3852,-5.3857,-5.3666,-5.3638,-5.3869,-5.3869,-5.3869,-5.3869,-5.3868,-5.3868,-5.3269,-5.3379,-5.3377,-5.35,-5.3519,-5.3603,-5.3632,-5.3669,-5.3697,-5.3796,-5.3852,-5.386,-5.3886,-5.3952,-5.4011,-5.4013,-5.4038,-5.4079,-5.4074,-5.3895,-5.387,-5.3846,-5.382,-5.4085,-5.4085,-5.4259,-5.4261,-5.4262]},{"header":{"parameterUnit":"m.s-1","parameterCategory":1,"la1":30.2991,"la2":30.254,"lo1":-89.0895,"lo2":-89.0444,"dy":0.0017,"dx":0.0017,"nx":28,"ny":28,"refTime":"2023-09-26T21:00:00:Z","depth":0,"parameterNumber":3,"parameterNumberName":"V-component_of_WINDS"},"data":[0,0,0,0,0,0,0,0,0,0,0,0,0,0,0,0,0,0,0,0,0,0,0,0,0,0,0,0,0,0,0,0,0,0,0,0,0,0,0,0,0,0,0,0,0,0,0,0,0,0,0,0,0,0,0,0,0,0,-3.3114,-3.3114,0,-3.3119,-3.3119,-3.3119,-3.3064,-3.3063,-3.3061,-3.306,-3.3066,-3.3067,-3.3069,0,0,0,0,0,0,0,0,0,0,0,0,0,-3.3054,-3.3056,-3.3114,-3.3114,-3.3114,-3.3119,-3.3119,-3.3119,-3.3064,-3.3063,-3.3061,-3.3059,-3.3065,-3.3067,-3.3069,0,0,0,0,0,0,0,0,0,0,0,0,0,-3.3072,-3.3056,-3.3114,-3.3087,-3.3085,-3.3119,-3.3119,-3.3119,-3.3065,-3.3063,-3.306,-3.3058,-3.3065,-3.3067,-3.3069,-3.313,0,0,-3.3076,-3.3077,0,0,0,0,0,0,0,0,-3.3071,-3.3074,-3.3091,-3.3089,-3.3086,-3.3089,-3.31,-3.3123,-3.3065,-3.3072,-3.306,-3.3057,-3.3075,-3.3077,-3.3083,-3.313,-3.313,-3.3077,-3.3078,-3.3079,-3.308,0,0,0,0,0,0,0,-3.307,-3.3074,-3.3116,-3.3091,-3.3088,-3.3074,-3.3074,-3.3104,-3.3087,-3.3072,-3.3068,-3.3069,-3.3074,-3.308,-3.3082,-3.313,-3.3077,-3.3079,-3.308,-3.3081,-3.3225,-3.3227,0,0,0,0,0,0,-3.3072,-3.3073,-3.3116,-3.3116,-3.3073,-3.3077,-3.3077,-3.309,-3.3086,-3.3083,-3.3071,-3.3066,-3.3078,-3.308,-3.3082,-3.3151,-3.3079,-3.3081,-3.3083,-3.3223,-3.3226,-3.3228,0,0,0,0,0,0,-3.3071,-3.3077,-3.3115,-3.3093,-3.3097,-3.3081,-3.3096,-3.3092,-3.3098,-3.3086,-3.3082,-3.3081,-3.3076,-3.3079,-3.3118,-3.3151,-3.3082,-3.3085,-3.322,-3.3224,-3.3227,-3.3291,0,0,0,0,0,0,-3.307,-3.3077,-3.31,-3.3094,-3.3099,-3.3152,-3.3098,-3.3093,-3.3103,-3.3097,-3.3094,-3.3092,-3.3074,-3.3115,-3.312,-3.3153,-3.3086,-3.3217,-3.3222,-3.3226,-3.3286,-3.3297,-3.3306,0,0,0,0,0,-3.3068,-3.3118,-3.3101,-3.3107,-3.3128,-3.3154,-3.3156,-3.3135,-3.3106,-3.3128,-3.312,-3.3092,-3.3146,-3.3119,-3.3125,-3.3159,-3.3215,-3.322,-3.3226,-3.3282,-3.3294,-3.3305,0,0,0,0,0,0,-3.3129,-3.3117,-3.3098,-3.3149,-3.3152,-3.3144,-3.3172,-3.3149,-3.3161,-3.3155,-3.3128,-3.3128,-3.3171,-3.3169,-3.3138,-3.3216,-3.3175,-3.3182,-3.3216,-3.3228,-3.3238,-3.3237,-3.3088,0,0,0,0,0,-3.3148,-3.317,-3.3159,-3.3204,-3.3207,-3.319,-3.32,-3.3183,-3.3186,-3.3187,-3.3182,-3.3186,-3.3203,-3.3216,-3.3231,-3.3285,-3.3283,-3.3311,-3.3321,-3.3329,-3.3335,-3.3362,-3.3374,-3.3246,-3.3246,-3.3246,0,0,-3.3188,-3.3185,-3.3201,-3.3216,-3.3217,-3.324,-3.3191,-3.3218,-3.3235,-3.3192,-3.3227,-3.3223,-3.3226,-3.3272,-3.3292,-3.3271,-3.337,-3.3336,-3.3343,-3.3344,-3.3369,-3.3381,-3.3392,-3.325,-3.3249,-3.3248,0,0,-3.3273,-3.3273,-3.331,-3.3311,-3.3313,-3.3301,-3.331,-3.3304,-3.33,-3.3335,-3.3303,-3.3322,-3.3353,-3.3356,-3.3361,-3.3445,-3.3419,-3.3451,-3.3502,-3.3528,-3.3538,-3.3547,-3.3576,-3.3586,-3.3457,-3.3457,-3.3457,0,-3.3323,-3.3356,-3.3332,-3.336,-3.3368,-3.3329,-3.3365,-3.3368,-3.3375,-3.3381,-3.3357,-3.3395,-3.3394,-3.3439,-3.3459,-3.3465,-3.3474,-3.3451,-3.3539,-3.3547,-3.3555,-3.3582,-3.3593,-3.3461,-3.346,-3.346,-3.346,0,-3.3417,-3.344,-3.347,-3.3477,-3.3487,-3.352,-3.3499,-3.3513,-3.3495,-3.3485,-3.352,-3.3517,-3.3531,-3.3541,-3.3524,-3.3583,-3.357,-3.3543,-3.3502,-3.3571,-3.3596,-3.3606,-3.3466,-3.3465,-3.3464,-3.3463,0,0,-3.3542,-3.3533,-3.3544,-3.3545,-3.3543,-3.3561,-3.3591,-3.3604,-3.3615,-3.3621,-3.3645,-3.3672,-3.3646,-3.3652,-3.3635,-3.3658,-3.3723,-3.3628,-3.3627,-3.3645,-3.3787,-3.3807,-3.3819,-3.3706,-3.3707,-3.3709,-3.3786,0,-3.3623,-3.3674,-3.3651,-3.3704,-3.3725,-3.3687,-3.3713,-3.3714,-3.3705,-3.3721,-3.3711,-3.373,-3.3695,-3.3698,-3.372,-3.371,-3.3751,-3.3704,-3.3727,-3.3728,-3.3727,-3.3832,-3.3854,-3.3927,-3.3796,-3.3798,-3.3799,0,-3.3726,-3.3734,-3.3789,-3.3781,-3.3789,-3.3813,-3.3821,-3.3837,-3.3837,-3.3829,-3.3835,-3.3812,-3.384,-3.3799,-3.3837,-3.3806,-3.3813,-3.381,-3.3812,-3.3813,-3.3768,-3.3836,-3.395,-3.3961,-3.3814,-3.3813,-3.3812,0,-3.381,-3.3835,-3.387,-3.3873,-3.3865,-3.3882,-3.388,-3.3878,-3.3886,-3.3894,-3.3899,-3.391,-3.3916,-3.3925,-3.3905,-3.3878,-3.3946,-3.3903,-3.3939,-3.394,-3.3955,-3.3954,-3.4072,-3.3961,-3.3961,-3.3961,-3.3961,0,-3.3903,-3.3937,-3.3907,-3.3929,-3.3966,-3.394,-3.3977,-3.3971,-3.3969,-3.3988,-3.3957,-3.3975,-3.3948,-3.3964,-3.3949,-3.3982,-3.3985,-3.3979,-3.3974,-3.3981,-3.3982,-3.3986,-3.398,-3.3964,-3.3963,-3.3963,-3.3962,0,-3.4003,-3.3985,-3.402,-3.4009,-3.4007,-3.4035,-3.4025,-3.4045,-3.4033,-3.4058,-3.4062,-3.4044,-3.4061,-3.4041,-3.4057,-3.4047,-3.4091,-3.4079,-3.4091,-3.4088,-3.4124,-3.4121,-3.4248,-3.4263,-3.4143,-3.4145,-3.4146,0,-3.4064,-3.4089,-3.408,-3.409,-3.4089,-3.4107,-3.4115,-3.4089,-3.4099,-3.41,-3.4119,-3.4133,-3.4143,-3.4172,-3.416,-3.4171,-3.4159,-3.4203,-3.4161,-3.4167,-3.4159,-3.4157,-3.4159,-3.4212,-3.4213,-3.4214,-3.4215,0,-3.4173,-3.4161,-3.4174,-3.4183,-3.4193,-3.4199,-3.4202,-3.4213,-3.4186,-3.4198,-3.4215,-3.4222,-3.4238,-3.4252,-3.426,-3.4257,-3.4232,-3.4228,-3.4237,-3.4245,-3.425,-3.4247,-3.4114,-3.4226,-3.4225,-3.4224,-3.4223,-3.4223,-3.4254,-3.4274,-3.427,-3.4285,-3.4284,-3.4288,-3.4305,-3.4295,-3.4308,-3.4318,-3.4302,-3.4322,-3.432,-3.4328,-3.4328,-3.4343,-3.4325,-3.4338,-3.4341,-3.4344,-3.4349,-3.4248,-3.4345,-3.4344,-3.4344,-3.4344,-3.4344,0,-3.4361,-3.4356,-3.4369,-3.4374,-3.4385,-3.4359,-3.4361,-3.4373,-3.4391,-3.4391,-3.44,-3.4419,-3.4432,-3.442,-3.4431,-3.4446,-3.4434,-3.4449,-3.4448,-3.4447,-3.4366,-3.4357,-3.4458,-3.4458,-3.4458,-3.4458,-3.4458,-3.4458,-3.4417,-3.4449,-3.4437,-3.4468,-3.4463,-3.4482,-3.4486,-3.4488,-3.4488,-3.4509,-3.452,-3.4512,-3.4507,-3.4517,-3.4527,-3.4524,-3.4529,-3.4548,-3.454,-3.4464,-3.4453,-3.4442,-3.4434,-3.4549,-3.455,-3.462,-3.462,-3.4621]}]]